Year,Month,Day,Hour,Minute,Value (Times are PST for temperature in C)
2018,11,11,00,00,3.40
2018,11,11,00,01,3.40
2018,11,11,00,02,3.40
2018,11,11,00,03,3.40
2018,11,11,00,04,3.40
2018,11,11,00,05,3.30
2018,11,11,00,06,3.30
2018,11,11,00,07,3.30
2018,11,11,00,08,3.30
2018,11,11,00,09,3.30
2018,11,11,00,10,3.30
2018,11,11,00,11,3.30
2018,11,11,00,12,3.30
2018,11,11,00,13,3.30
2018,11,11,00,14,3.30
2018,11,11,00,15,3.30
2018,11,11,00,16,3.30
2018,11,11,00,17,3.30
2018,11,11,00,18,3.30
2018,11,11,00,19,3.30
2018,11,11,00,20,3.30
2018,11,11,00,21,3.30
2018,11,11,00,22,3.30
2018,11,11,00,23,3.30
2018,11,11,00,24,3.30
2018,11,11,00,25,3.30
2018,11,11,00,26,3.30
2018,11,11,00,27,3.30
2018,11,11,00,28,3.30
2018,11,11,00,29,3.30
2018,11,11,00,30,3.30
2018,11,11,00,31,3.40
2018,11,11,00,32,3.40
2018,11,11,00,33,3.40
2018,11,11,00,34,3.40
2018,11,11,00,35,3.40
2018,11,11,00,36,3.40
2018,11,11,00,37,3.40
2018,11,11,00,38,3.40
2018,11,11,00,39,3.40
2018,11,11,00,40,3.40
2018,11,11,00,41,3.40
2018,11,11,00,42,3.40
2018,11,11,00,43,3.40
2018,11,11,00,44,3.30
2018,11,11,00,45,3.30
2018,11,11,00,46,3.30
2018,11,11,00,47,3.30
2018,11,11,00,48,3.30
2018,11,11,00,49,3.30
2018,11,11,00,50,3.30
2018,11,11,00,51,3.30
2018,11,11,00,52,3.30
2018,11,11,00,53,3.30
2018,11,11,00,54,3.30
2018,11,11,00,55,3.40
2018,11,11,00,56,3.40
2018,11,11,00,57,3.40
2018,11,11,00,58,3.40
2018,11,11,00,59,3.40
2018,11,11,01,00,3.40
2018,11,11,01,01,3.40
2018,11,11,01,02,3.40
2018,11,11,01,03,3.40
2018,11,11,01,04,3.40
2018,11,11,01,05,3.40
2018,11,11,01,06,3.40
2018,11,11,01,07,3.40
2018,11,11,01,08,3.40
2018,11,11,01,09,3.40
2018,11,11,01,10,3.40
2018,11,11,01,11,3.40
2018,11,11,01,12,3.40
2018,11,11,01,13,3.40
2018,11,11,01,14,3.40
2018,11,11,01,15,3.40
2018,11,11,01,16,3.40
2018,11,11,01,17,3.40
2018,11,11,01,18,3.40
2018,11,11,01,19,3.40
2018,11,11,01,20,3.40
2018,11,11,01,21,3.40
2018,11,11,01,22,3.40
2018,11,11,01,23,3.30
2018,11,11,01,24,3.30
2018,11,11,01,25,3.30
2018,11,11,01,26,3.30
2018,11,11,01,27,3.30
2018,11,11,01,28,3.30
2018,11,11,01,29,3.30
2018,11,11,01,30,3.30
2018,11,11,01,31,3.30
2018,11,11,01,32,3.30
2018,11,11,01,33,3.30
2018,11,11,01,34,3.30
2018,11,11,01,35,3.30
2018,11,11,01,36,3.30
2018,11,11,01,37,3.30
2018,11,11,01,38,3.30
2018,11,11,01,39,3.30
2018,11,11,01,40,3.30
2018,11,11,01,41,3.30
2018,11,11,01,42,3.30
2018,11,11,01,43,3.30
2018,11,11,01,44,3.30
2018,11,11,01,45,3.30
2018,11,11,01,46,3.30
2018,11,11,01,47,3.30
2018,11,11,01,48,3.30
2018,11,11,01,49,3.30
2018,11,11,01,50,3.30
2018,11,11,01,51,3.40
2018,11,11,01,52,3.40
2018,11,11,01,53,3.40
2018,11,11,01,54,3.40
2018,11,11,01,55,3.40
2018,11,11,01,56,3.40
2018,11,11,01,57,3.40
2018,11,11,01,58,3.40
2018,11,11,01,59,3.50
2018,11,11,02,00,3.50
2018,11,11,02,01,3.40
2018,11,11,02,02,3.40
2018,11,11,02,03,3.40
2018,11,11,02,04,3.40
2018,11,11,02,05,3.40
2018,11,11,02,06,3.40
2018,11,11,02,07,3.40
2018,11,11,02,08,3.50
2018,11,11,02,09,3.50
2018,11,11,02,10,3.50
2018,11,11,02,11,3.50
2018,11,11,02,12,3.50
2018,11,11,02,13,3.50
2018,11,11,02,14,3.50
2018,11,11,02,15,3.60
2018,11,11,02,16,3.60
2018,11,11,02,17,3.60
2018,11,11,02,18,3.60
2018,11,11,02,19,3.60
2018,11,11,02,20,3.60
2018,11,11,02,21,3.70
2018,11,11,02,22,3.70
2018,11,11,02,23,3.70
2018,11,11,02,24,3.70
2018,11,11,02,25,3.70
2018,11,11,02,26,3.70
2018,11,11,02,27,3.70
2018,11,11,02,28,3.70
2018,11,11,02,29,3.70
2018,11,11,02,30,3.80
2018,11,11,02,31,3.70
2018,11,11,02,32,3.80
2018,11,11,02,33,3.80
2018,11,11,02,34,3.80
2018,11,11,02,35,3.80
2018,11,11,02,36,3.80
2018,11,11,02,37,3.80
2018,11,11,02,38,3.80
2018,11,11,02,39,3.80
2018,11,11,02,40,3.80
2018,11,11,02,41,3.90
2018,11,11,02,42,3.90
2018,11,11,02,43,3.90
2018,11,11,02,44,4.00
2018,11,11,02,45,4.00
2018,11,11,02,46,4.00
2018,11,11,02,47,4.00
2018,11,11,02,48,4.00
2018,11,11,02,49,4.00
2018,11,11,02,50,4.00
2018,11,11,02,51,4.00
2018,11,11,02,52,4.00
2018,11,11,02,53,4.00
2018,11,11,02,54,4.00
2018,11,11,02,55,4.00
2018,11,11,07,43,5.40
2018,11,11,07,44,5.40
2018,11,11,07,45,5.40
2018,11,11,07,46,5.40
2018,11,11,07,47,5.50
2018,11,11,07,48,5.50
2018,11,11,07,49,5.50
2018,11,11,07,50,5.50
2018,11,11,07,51,5.50
2018,11,11,07,52,5.50
2018,11,11,07,53,5.50
2018,11,11,07,54,5.50
2018,11,11,07,55,5.50
2018,11,11,07,56,5.50
2018,11,11,07,57,5.50
2018,11,11,07,58,5.60
2018,11,11,07,59,5.50
2018,11,11,08,00,5.60
2018,11,11,08,01,5.60
2018,11,11,08,02,5.60
2018,11,11,08,03,5.60
2018,11,11,08,04,5.60
2018,11,11,08,05,5.60
2018,11,11,08,06,5.60
2018,11,11,08,07,5.60
2018,11,11,08,08,5.60
2018,11,11,08,09,5.70
2018,11,11,08,10,5.70
2018,11,11,08,11,5.70
2018,11,11,08,12,5.70
2018,11,11,08,13,5.70
2018,11,11,08,14,5.80
2018,11,11,08,15,5.80
2018,11,11,08,16,5.80
2018,11,11,08,17,5.80
2018,11,11,08,18,5.90
2018,11,11,08,19,5.90
2018,11,11,08,20,5.90
2018,11,11,08,21,5.90
2018,11,11,08,22,6.00
2018,11,11,08,23,6.00
2018,11,11,08,24,6.10
2018,11,11,08,25,6.10
2018,11,11,08,26,6.10
2018,11,11,08,27,6.20
2018,11,11,08,28,6.20
2018,11,11,08,29,6.20
2018,11,11,08,30,6.30
2018,11,11,08,31,6.30
2018,11,11,08,32,6.30
2018,11,11,08,33,6.30
2018,11,11,08,34,6.30
2018,11,11,08,35,6.40
2018,11,11,08,36,6.40
2018,11,11,08,37,6.40
2018,11,11,08,38,6.40
2018,11,11,08,39,6.50
2018,11,11,08,40,6.50
2018,11,11,08,41,6.50
2018,11,11,08,42,6.50
2018,11,11,08,43,6.60
2018,11,11,08,44,6.60
2018,11,11,08,45,6.60
2018,11,11,08,46,6.60
2018,11,11,08,47,6.60
2018,11,11,08,48,6.70
2018,11,11,08,49,6.70
2018,11,11,08,50,6.70
2018,11,11,08,51,6.70
2018,11,11,08,52,6.70
2018,11,11,08,53,6.70
2018,11,11,08,54,6.70
2018,11,11,08,55,6.70
2018,11,11,08,56,6.80
2018,11,11,08,57,6.70
2018,11,11,08,58,6.80
2018,11,11,08,59,6.80
2018,11,11,09,00,6.80
2018,11,11,09,01,6.80
2018,11,11,09,02,6.80
2018,11,11,09,03,6.80
2018,11,11,09,04,6.80
2018,11,11,09,05,6.80
2018,11,11,09,06,6.80
2018,11,11,09,07,6.80
2018,11,11,09,08,6.80
2018,11,11,09,09,6.80
2018,11,11,09,10,6.80
2018,11,11,09,11,6.90
2018,11,11,09,12,6.90
2018,11,11,09,13,6.90
2018,11,11,09,14,6.90
2018,11,11,09,15,6.90
2018,11,11,09,16,6.90
2018,11,11,09,17,6.90
2018,11,11,09,18,6.90
2018,11,11,09,19,6.90
2018,11,11,09,20,6.90
2018,11,11,09,21,6.90
2018,11,11,09,22,6.90
2018,11,11,09,23,6.90
2018,11,11,09,24,7.00
2018,11,11,09,25,7.00
2018,11,11,09,26,7.00
2018,11,11,09,27,7.10
2018,11,11,09,28,7.10
2018,11,11,09,29,7.10
2018,11,11,09,30,7.10
2018,11,11,09,31,7.10
2018,11,11,09,32,7.20
2018,11,11,09,33,7.20
2018,11,11,09,34,7.20
2018,11,11,09,35,7.20
2018,11,11,09,36,7.20
2018,11,11,09,37,7.20
2018,11,11,09,38,7.20
2018,11,11,09,39,7.20
2018,11,11,09,40,7.30
2018,11,11,09,41,7.30
2018,11,11,09,42,7.30
2018,11,11,09,43,7.30
2018,11,11,09,44,7.30
2018,11,11,09,45,7.30
2018,11,11,09,46,7.30
2018,11,11,09,47,7.30
2018,11,11,09,48,7.30
2018,11,11,09,49,7.30
2018,11,11,09,50,7.30
2018,11,11,09,51,7.30
2018,11,11,09,52,7.30
2018,11,11,09,53,7.30
2018,11,11,09,54,7.30
2018,11,11,09,55,7.30
2018,11,11,09,56,7.30
2018,11,11,09,57,7.40
2018,11,11,09,58,7.40
2018,11,11,09,59,7.40
2018,11,11,10,00,7.40
2018,11,11,10,01,7.40
2018,11,11,10,02,7.40
2018,11,11,10,03,7.40
2018,11,11,10,04,7.40
2018,11,11,10,05,7.40
2018,11,11,10,06,7.40
2018,11,11,10,07,7.40
2018,11,11,10,08,7.40
2018,11,11,10,09,7.40
2018,11,11,10,10,7.40
2018,11,11,10,11,7.40
2018,11,11,10,12,7.40
2018,11,11,10,13,7.40
2018,11,11,10,14,7.40
2018,11,11,10,15,7.40
2018,11,11,10,16,7.40
2018,11,11,10,17,7.50
2018,11,11,10,18,7.50
2018,11,11,10,19,7.50
2018,11,11,10,20,7.50
2018,11,11,10,21,7.50
2018,11,11,10,22,7.60
2018,11,11,10,23,7.60
2018,11,11,10,24,7.60
2018,11,11,10,25,7.60
2018,11,11,10,26,7.60
2018,11,11,10,27,7.60
2018,11,11,10,28,7.60
2018,11,11,10,29,7.60
2018,11,11,10,30,7.60
2018,11,11,10,31,7.60
2018,11,11,10,32,7.60
2018,11,11,10,33,7.60
2018,11,11,10,34,7.60
2018,11,11,10,35,7.60
2018,11,11,10,36,7.70
2018,11,11,10,37,7.70
2018,11,11,10,38,7.70
2018,11,11,10,39,7.70
2018,11,11,10,40,7.70
2018,11,11,10,41,7.70
2018,11,11,10,42,7.70
2018,11,11,10,43,7.70
2018,11,11,10,44,7.70
2018,11,11,10,45,7.70
2018,11,11,10,46,7.70
2018,11,11,10,47,7.70
2018,11,11,10,48,7.70
2018,11,11,10,49,7.70
2018,11,11,10,50,7.70
2018,11,11,10,51,7.70
2018,11,11,10,52,7.70
2018,11,11,10,53,7.70
2018,11,11,10,54,7.70
2018,11,11,10,55,7.70
2018,11,11,10,56,7.70
2018,11,11,10,57,7.70
2018,11,11,10,58,7.70
2018,11,11,10,59,7.70
2018,11,11,11,00,7.70
2018,11,11,11,01,7.70
2018,11,11,11,02,7.80
2018,11,11,11,03,7.80
2018,11,11,11,04,7.80
2018,11,11,11,05,7.80
2018,11,11,11,06,7.80
2018,11,11,11,07,7.80
2018,11,11,11,08,7.80
2018,11,11,11,09,7.80
2018,11,11,11,10,7.80
2018,11,11,11,11,7.80
2018,11,11,11,12,7.80
2018,11,11,11,13,7.80
2018,11,11,11,14,7.80
2018,11,11,11,15,7.80
2018,11,11,11,16,7.80
2018,11,11,11,17,7.80
2018,11,11,11,18,7.80
2018,11,11,11,19,7.80
2018,11,11,11,20,7.80
2018,11,11,11,21,7.80
2018,11,11,11,22,7.80
2018,11,11,11,23,7.90
2018,11,11,11,24,7.90
2018,11,11,11,25,7.90
2018,11,11,11,26,7.90
2018,11,11,11,27,7.90
2018,11,11,11,28,7.90
2018,11,11,11,29,7.90
2018,11,11,11,30,7.90
2018,11,11,11,31,7.90
2018,11,11,11,32,7.90
2018,11,11,11,33,7.90
2018,11,11,11,34,7.90
2018,11,11,11,35,7.90
2018,11,11,11,36,7.90
2018,11,11,11,37,7.90
2018,11,11,11,38,7.90
2018,11,11,11,39,7.90
2018,11,11,11,40,7.90
2018,11,11,11,41,7.90
2018,11,11,11,42,7.90
2018,11,11,11,43,7.90
2018,11,11,11,44,7.90
2018,11,11,11,45,8.00
2018,11,11,11,46,8.00
2018,11,11,11,47,8.00
2018,11,11,11,48,8.00
2018,11,11,11,49,8.00
2018,11,11,11,50,8.00
2018,11,11,11,51,8.10
2018,11,11,11,52,8.10
2018,11,11,11,53,8.10
2018,11,11,11,54,8.10
2018,11,11,11,55,8.10
2018,11,11,11,56,8.10
2018,11,11,11,57,8.10
2018,11,11,11,58,8.10
2018,11,11,11,59,8.10
2018,11,11,12,00,8.10
2018,11,11,12,01,8.20
2018,11,11,12,02,8.20
2018,11,11,12,03,8.20
2018,11,11,12,04,8.20
2018,11,11,12,05,8.20
2018,11,11,12,06,8.20
2018,11,11,12,07,8.20
2018,11,11,12,08,8.20
2018,11,11,12,09,8.20
2018,11,11,12,10,8.20
2018,11,11,12,11,8.20
2018,11,11,12,12,8.20
2018,11,11,12,13,8.20
2018,11,11,12,14,8.20
2018,11,11,12,15,8.20
2018,11,11,12,16,8.30
2018,11,11,12,17,8.30
2018,11,11,12,18,8.30
2018,11,11,12,19,8.30
2018,11,11,12,20,8.30
2018,11,11,12,21,8.30
2018,11,11,12,22,8.30
2018,11,11,12,23,8.30
2018,11,11,12,24,8.30
2018,11,11,12,25,8.30
2018,11,11,12,26,8.30
2018,11,11,12,27,8.30
2018,11,11,12,28,8.30
2018,11,11,12,29,8.30
2018,11,11,12,30,8.30
2018,11,11,12,31,8.30
2018,11,11,12,32,8.30
2018,11,11,12,33,8.30
2018,11,11,12,34,8.30
2018,11,11,12,35,8.30
2018,11,11,12,36,8.30
2018,11,11,12,37,8.30
2018,11,11,12,38,8.30
2018,11,11,12,39,8.30
2018,11,11,12,40,8.30
2018,11,11,12,41,8.40
2018,11,11,12,42,8.40
2018,11,11,12,43,8.40
2018,11,11,12,44,8.40
2018,11,11,12,45,8.40
2018,11,11,12,46,8.40
2018,11,11,12,47,8.40
2018,11,11,12,48,8.40
2018,11,11,12,49,8.40
2018,11,11,12,50,8.40
2018,11,11,12,51,8.40
2018,11,11,12,52,8.40
2018,11,11,12,53,8.40
2018,11,11,12,54,8.40
2018,11,11,12,55,8.40
2018,11,11,12,56,8.40
2018,11,11,12,57,8.40
2018,11,11,12,58,8.40
2018,11,11,12,59,8.40
2018,11,11,13,00,8.40
2018,11,11,13,01,8.40
2018,11,11,13,02,8.40
2018,11,11,13,03,8.40
2018,11,11,13,04,8.40
2018,11,11,13,05,8.40
2018,11,11,13,06,8.40
2018,11,11,13,07,8.40
2018,11,11,13,08,8.40
2018,11,11,13,09,8.50
2018,11,11,13,10,8.50
2018,11,11,13,11,8.50
2018,11,11,13,12,8.50
2018,11,11,13,13,8.60
2018,11,11,13,14,8.60
2018,11,11,13,15,8.60
2018,11,11,13,16,8.60
2018,11,11,13,17,8.60
2018,11,11,13,18,8.60
2018,11,11,13,19,8.60
2018,11,11,13,20,8.60
2018,11,11,13,21,8.60
2018,11,11,13,22,8.60
2018,11,11,13,23,8.60
2018,11,11,13,24,8.60
2018,11,11,13,25,8.60
2018,11,11,13,26,8.60
2018,11,11,13,27,8.60
2018,11,11,13,28,8.60
2018,11,11,13,29,8.60
2018,11,11,13,30,8.60
2018,11,11,13,31,8.60
2018,11,11,13,32,8.60
2018,11,11,13,33,8.60
2018,11,11,13,34,8.60
2018,11,11,13,35,8.60
2018,11,11,13,36,8.60
2018,11,11,13,37,8.60
2018,11,11,13,38,8.60
2018,11,11,13,39,8.60
2018,11,11,13,40,8.60
2018,11,11,13,41,8.70
2018,11,11,13,42,8.70
2018,11,11,13,43,8.70
2018,11,11,13,44,8.70
2018,11,11,13,45,8.70
2018,11,11,13,46,8.80
2018,11,11,13,47,8.70
2018,11,11,13,48,8.70
2018,11,11,13,49,8.70
2018,11,11,13,50,8.70
2018,11,11,13,51,8.70
2018,11,11,13,52,8.80
2018,11,11,13,53,8.80
2018,11,11,13,54,8.80
2018,11,11,13,55,8.80
2018,11,11,13,56,8.80
2018,11,11,13,57,8.80
2018,11,11,13,58,8.80
2018,11,11,13,59,8.90
2018,11,11,14,00,8.90
2018,11,11,14,01,8.90
2018,11,11,14,02,9.00
2018,11,11,14,03,9.00
2018,11,11,14,04,9.00
2018,11,11,14,05,9.10
2018,11,11,14,06,9.10
2018,11,11,14,07,9.10
2018,11,11,14,08,9.20
2018,11,11,14,09,9.20
2018,11,11,14,10,9.20
2018,11,11,14,11,9.20
2018,11,11,14,12,9.20
2018,11,11,14,13,9.20
2018,11,11,14,14,9.20
2018,11,11,14,15,9.30
2018,11,11,14,16,9.30
2018,11,11,14,17,9.30
2018,11,11,14,18,9.30
2018,11,11,14,19,9.30
2018,11,11,14,20,9.30
2018,11,11,14,21,9.30
2018,11,11,14,22,9.30
2018,11,11,14,23,9.30
2018,11,11,14,24,9.30
2018,11,11,14,25,9.30
2018,11,11,14,26,9.30
2018,11,11,14,27,9.40
2018,11,11,14,28,9.40
2018,11,11,14,29,9.40
2018,11,11,14,30,9.40
2018,11,11,14,31,9.40
2018,11,11,14,32,9.50
2018,11,11,14,33,9.50
2018,11,11,14,34,9.50
2018,11,11,14,35,9.60
2018,11,11,14,36,9.60
2018,11,11,14,37,9.60
2018,11,11,14,38,9.70
2018,11,11,14,39,9.70
2018,11,11,14,40,9.70
2018,11,11,14,41,9.70
2018,11,11,14,42,9.70
2018,11,11,14,43,9.70
2018,11,11,14,44,9.70
2018,11,11,14,45,9.70
2018,11,11,14,46,9.60
2018,11,11,14,47,9.60
2018,11,11,14,48,9.60
2018,11,11,14,49,9.70
2018,11,11,14,50,9.60
2018,11,11,14,51,9.70
2018,11,11,14,52,9.70
2018,11,11,14,53,9.70
2018,11,11,14,54,9.80
2018,11,11,14,55,9.80
2018,11,11,14,56,9.80
2018,11,11,14,57,9.80
2018,11,11,14,58,9.80
2018,11,11,14,59,9.80
2018,11,11,15,00,9.80
2018,11,11,15,01,9.80
2018,11,11,15,02,9.80
2018,11,11,15,03,9.80
2018,11,11,15,04,9.80
2018,11,11,15,05,9.90
2018,11,11,15,06,9.90
2018,11,11,15,07,9.90
2018,11,11,15,08,9.90
2018,11,11,15,09,9.90
2018,11,11,15,10,9.80
2018,11,11,15,11,9.80
2018,11,11,15,12,9.80
2018,11,11,15,13,9.80
2018,11,11,15,14,9.80
2018,11,11,15,15,9.80
2018,11,11,15,16,9.80
2018,11,11,15,17,9.80
2018,11,11,15,18,9.80
2018,11,11,15,19,9.80
2018,11,11,15,20,9.80
2018,11,11,15,21,9.80
2018,11,11,15,22,9.70
2018,11,11,15,23,9.70
2018,11,11,15,24,9.80
2018,11,11,15,25,9.80
2018,11,11,15,26,9.80
2018,11,11,15,27,9.80
2018,11,11,15,28,9.80
2018,11,11,15,29,9.90
2018,11,11,15,30,9.90
2018,11,11,15,31,9.90
2018,11,11,15,32,9.80
2018,11,11,15,33,9.80
2018,11,11,15,34,9.80
2018,11,11,15,35,9.80
2018,11,11,15,36,9.80
2018,11,11,15,37,9.80
2018,11,11,15,38,9.80
2018,11,11,15,39,9.80
2018,11,11,15,40,9.70
2018,11,11,15,41,9.70
2018,11,11,15,42,9.70
2018,11,11,15,43,9.70
2018,11,11,15,44,9.70
2018,11,11,15,45,9.70
2018,11,11,15,46,9.70
2018,11,11,15,47,9.60
2018,11,11,15,48,9.60
2018,11,11,15,49,9.60
2018,11,11,15,50,9.60
2018,11,11,15,51,9.60
2018,11,11,15,52,9.50
2018,11,11,15,53,9.50
2018,11,11,15,54,9.50
2018,11,11,15,55,9.40
2018,11,11,15,56,9.40
2018,11,11,15,57,9.40
2018,11,11,15,58,9.40
2018,11,11,15,59,9.40
2018,11,11,16,00,9.30
2018,11,11,16,01,9.30
2018,11,11,16,02,9.30
2018,11,11,16,03,9.30
2018,11,11,16,04,9.30
2018,11,11,16,05,9.30
2018,11,11,16,06,9.30
2018,11,11,16,07,9.30
2018,11,11,16,08,9.20
2018,11,11,16,09,9.20
2018,11,11,16,10,9.20
2018,11,11,16,11,9.20
2018,11,11,16,12,9.20
2018,11,11,16,13,9.20
2018,11,11,16,14,9.20
2018,11,11,16,15,9.10
2018,11,11,16,16,9.10
2018,11,11,16,17,9.10
2018,11,11,16,18,9.10
2018,11,11,16,19,9.10
2018,11,11,16,20,9.00
2018,11,11,16,21,9.00
2018,11,11,16,22,9.00
2018,11,11,16,23,9.00
2018,11,11,16,24,8.90
2018,11,11,16,25,8.90
2018,11,11,16,26,8.90
2018,11,11,16,27,8.90
2018,11,11,16,28,8.90
2018,11,11,16,29,8.90
2018,11,11,16,30,8.90
2018,11,11,16,31,8.90
2018,11,11,16,32,8.80
2018,11,11,16,33,8.80
2018,11,11,16,34,8.80
2018,11,11,16,35,8.80
2018,11,11,16,36,8.80
2018,11,11,16,37,8.80
2018,11,11,16,38,8.80
2018,11,11,16,39,8.80
2018,11,11,16,40,8.70
2018,11,11,16,41,8.70
2018,11,11,16,42,8.70
2018,11,11,16,43,8.70
2018,11,11,16,44,8.70
2018,11,11,16,45,8.70
2018,11,11,16,46,8.70
2018,11,11,16,47,8.70
2018,11,11,16,48,8.70
2018,11,11,16,49,8.70
2018,11,11,16,50,8.60
2018,11,11,16,51,8.60
2018,11,11,16,52,8.60
2018,11,11,16,53,8.60
2018,11,11,16,54,8.60
2018,11,11,16,55,8.60
2018,11,11,16,56,8.60
2018,11,11,16,57,8.60
2018,11,11,16,58,8.60
2018,11,11,16,59,8.50
2018,11,11,17,00,8.50
2018,11,11,17,01,8.50
2018,11,11,17,02,8.50
2018,11,11,17,03,8.50
2018,11,11,17,04,8.40
2018,11,11,17,05,8.40
2018,11,11,17,06,8.40
2018,11,11,17,07,8.40
2018,11,11,17,08,8.40
2018,11,11,17,09,8.40
2018,11,11,17,10,8.40
2018,11,11,17,11,8.40
2018,11,11,17,12,8.40
2018,11,11,17,13,8.40
2018,11,11,17,14,8.40
2018,11,11,17,15,8.40
2018,11,11,17,16,8.40
2018,11,11,17,17,8.40
2018,11,11,17,18,8.40
2018,11,11,17,19,8.40
2018,11,11,17,20,8.30
2018,11,11,17,21,8.30
2018,11,11,17,22,8.30
2018,11,11,17,23,8.30
2018,11,11,17,24,8.30
2018,11,11,17,25,8.30
2018,11,11,17,26,8.30
2018,11,11,17,27,8.30
2018,11,11,17,28,8.30
2018,11,11,17,29,8.30
2018,11,11,17,30,8.30
2018,11,11,17,31,8.30
2018,11,11,17,32,8.30
2018,11,11,17,33,8.30
2018,11,11,17,34,8.30
2018,11,11,17,35,8.20
2018,11,11,17,36,8.20
2018,11,11,17,37,8.20
2018,11,11,17,38,8.20
2018,11,11,17,39,8.20
2018,11,11,17,40,8.20
2018,11,11,17,41,8.20
2018,11,11,17,42,8.20
2018,11,11,17,43,8.20
2018,11,11,17,44,8.20
2018,11,11,17,45,8.20
2018,11,11,17,46,8.20
2018,11,11,17,47,8.20
2018,11,11,17,48,8.20
2018,11,11,17,49,8.20
2018,11,11,17,50,8.20
2018,11,11,17,51,8.20
2018,11,11,17,52,8.20
2018,11,11,17,53,8.20
2018,11,11,17,54,8.20
2018,11,11,17,55,8.20
2018,11,11,17,56,8.20
2018,11,11,17,57,8.20
2018,11,11,17,58,8.20
2018,11,11,17,59,8.20
2018,11,11,18,00,8.20
2018,11,11,18,01,8.20
2018,11,11,18,02,8.20
2018,11,11,18,03,8.20
2018,11,11,18,04,8.20
2018,11,11,18,05,8.20
2018,11,11,18,06,8.20
2018,11,11,18,07,8.20
2018,11,11,18,08,8.20
2018,11,11,18,09,8.20
2018,11,11,18,10,8.20
2018,11,11,18,11,8.20
2018,11,11,18,12,8.20
2018,11,11,18,13,8.20
2018,11,11,18,14,8.10
2018,11,11,18,15,8.10
2018,11,11,18,16,8.10
2018,11,11,18,17,8.10
2018,11,11,18,18,8.10
2018,11,11,18,19,8.10
2018,11,11,18,20,8.10
2018,11,11,18,21,8.10
2018,11,11,18,22,8.10
2018,11,11,18,23,8.10
2018,11,11,18,24,8.10
2018,11,11,18,25,8.10
2018,11,11,18,26,8.10
2018,11,11,18,27,8.10
2018,11,11,18,28,8.00
2018,11,11,18,29,8.00
2018,11,11,18,30,8.00
2018,11,11,18,31,8.00
2018,11,11,18,32,8.00
2018,11,11,18,33,8.00
2018,11,11,18,34,8.00
2018,11,11,18,35,7.90
2018,11,11,18,36,7.90
2018,11,11,18,37,7.90
2018,11,11,18,38,7.90
2018,11,11,18,39,7.90
2018,11,11,18,40,7.90
2018,11,11,18,41,7.90
2018,11,11,18,42,7.90
2018,11,11,18,43,7.90
2018,11,11,18,44,7.90
2018,11,11,18,45,7.80
2018,11,11,18,46,7.80
2018,11,11,18,47,7.80
2018,11,11,18,48,7.80
2018,11,11,18,49,7.80
2018,11,11,18,50,7.80
2018,11,11,18,51,7.80
2018,11,11,18,52,7.80
2018,11,11,18,53,7.80
2018,11,11,18,54,7.80
2018,11,11,18,55,7.80
2018,11,11,18,56,7.80
2018,11,11,18,57,7.70
2018,11,11,18,58,7.70
2018,11,11,18,59,7.70
2018,11,11,19,00,7.70
2018,11,11,19,01,7.70
2018,11,11,19,02,7.70
2018,11,11,19,03,7.70
2018,11,11,19,04,7.70
2018,11,11,19,05,7.70
2018,11,11,19,06,7.70
2018,11,11,19,07,7.70
2018,11,11,19,08,7.70
2018,11,11,19,09,7.70
2018,11,11,19,10,7.70
2018,11,11,19,11,7.70
2018,11,11,19,12,7.70
2018,11,11,19,13,7.70
2018,11,11,19,14,7.70
2018,11,11,19,15,7.60
2018,11,11,19,16,7.60
2018,11,11,19,17,7.60
2018,11,11,19,18,7.60
2018,11,11,19,19,7.60
2018,11,11,19,20,7.60
2018,11,11,19,21,7.60
2018,11,11,19,22,7.60
2018,11,11,19,23,7.60
2018,11,11,19,24,7.60
2018,11,11,19,25,7.60
2018,11,11,19,26,7.60
2018,11,11,19,27,7.60
2018,11,11,19,28,7.60
2018,11,11,19,29,7.60
2018,11,11,19,30,7.60
2018,11,11,19,31,7.50
2018,11,11,19,32,7.50
2018,11,11,19,33,7.50
2018,11,11,19,34,7.50
2018,11,11,19,35,7.50
2018,11,11,19,36,7.50
2018,11,11,19,37,7.40
2018,11,11,19,38,7.40
2018,11,11,19,39,7.40
2018,11,11,19,40,7.40
2018,11,11,19,41,7.40
2018,11,11,19,42,7.40
2018,11,11,19,43,7.40
2018,11,11,19,44,7.40
2018,11,11,19,45,7.40
2018,11,11,19,46,7.40
2018,11,11,19,47,7.40
2018,11,11,19,48,7.40
2018,11,11,19,49,7.30
2018,11,11,19,50,7.30
2018,11,11,19,51,7.30
2018,11,11,19,52,7.30
2018,11,11,19,53,7.30
2018,11,11,19,54,7.30
2018,11,11,19,55,7.30
2018,11,11,19,56,7.30
2018,11,11,19,57,7.30
2018,11,11,19,58,7.30
2018,11,11,19,59,7.30
2018,11,11,20,00,7.30
2018,11,11,20,01,7.20
2018,11,11,20,02,7.20
2018,11,11,20,03,7.20
2018,11,11,20,04,7.20
2018,11,11,20,05,7.20
2018,11,11,20,06,7.20
2018,11,11,20,07,7.20
2018,11,11,20,08,7.20
2018,11,11,20,09,7.10
2018,11,11,20,10,7.10
2018,11,11,20,11,7.10
2018,11,11,20,12,7.10
2018,11,11,20,13,7.10
2018,11,11,20,14,7.10
2018,11,11,20,15,7.10
2018,11,11,20,16,7.10
2018,11,11,20,17,7.10
2018,11,11,20,18,7.10
2018,11,11,20,19,7.10
2018,11,11,20,20,7.10
2018,11,11,20,21,7.10
2018,11,11,20,22,7.10
2018,11,11,20,23,7.10
2018,11,11,20,24,7.10
2018,11,11,20,25,7.10
2018,11,11,20,26,7.10
2018,11,11,20,27,7.10
2018,11,11,20,28,7.10
2018,11,11,20,29,7.10
2018,11,11,20,30,7.10
2018,11,11,20,31,7.10
2018,11,11,20,32,7.10
2018,11,11,20,33,7.10
2018,11,11,20,34,7.00
2018,11,11,20,35,7.00
2018,11,11,20,36,7.00
2018,11,11,20,37,7.00
2018,11,11,20,38,7.00
2018,11,11,20,39,7.00
2018,11,11,20,40,6.90
2018,11,11,20,41,6.90
2018,11,11,20,42,6.90
2018,11,11,20,43,6.90
2018,11,11,20,44,6.90
2018,11,11,20,45,6.90
2018,11,11,20,46,6.90
2018,11,11,20,47,6.90
2018,11,11,20,48,6.90
2018,11,11,20,49,6.90
2018,11,11,20,50,6.90
2018,11,11,20,51,6.90
2018,11,11,20,52,6.90
2018,11,11,20,53,6.90
2018,11,11,20,54,6.90
2018,11,11,20,55,6.90
2018,11,11,20,56,6.90
2018,11,11,20,57,6.90
2018,11,11,20,58,6.90
2018,11,11,20,59,6.90
2018,11,11,21,00,6.90
2018,11,11,21,01,6.90
2018,11,11,21,02,6.90
2018,11,11,21,03,6.90
2018,11,11,21,04,6.90
2018,11,11,21,05,6.90
2018,11,11,21,06,6.90
2018,11,11,21,07,6.90
2018,11,11,21,08,6.90
2018,11,11,21,09,6.90
2018,11,11,21,10,6.90
2018,11,11,21,11,6.90
2018,11,11,21,12,6.90
2018,11,11,21,13,6.90
2018,11,11,21,14,6.90
2018,11,11,21,15,6.90
2018,11,11,21,16,6.90
2018,11,11,21,17,6.80
2018,11,11,21,18,6.80
2018,11,11,21,19,6.80
2018,11,11,21,20,6.80
2018,11,11,21,21,6.80
2018,11,11,21,22,6.80
2018,11,11,21,23,6.80
2018,11,11,21,24,6.80
2018,11,11,21,25,6.80
2018,11,11,21,26,6.80
2018,11,11,21,27,6.80
2018,11,11,21,28,6.80
2018,11,11,21,29,6.80
2018,11,11,21,30,6.80
2018,11,11,21,31,6.80
2018,11,11,21,32,6.80
2018,11,11,21,33,6.80
2018,11,11,21,34,6.80
2018,11,11,21,35,6.80
2018,11,11,21,36,6.80
2018,11,11,21,37,6.80
2018,11,11,21,38,6.80
2018,11,11,21,39,6.80
2018,11,11,21,40,6.80
2018,11,11,21,41,6.80
2018,11,11,21,42,6.70
2018,11,11,21,43,6.70
2018,11,11,21,44,6.70
2018,11,11,21,45,6.70
2018,11,11,21,46,6.70
2018,11,11,21,47,6.70
2018,11,11,21,48,6.70
2018,11,11,21,49,6.60
2018,11,11,21,50,6.60
2018,11,11,21,51,6.60
2018,11,11,21,52,6.60
2018,11,11,21,53,6.60
2018,11,11,21,54,6.60
2018,11,11,21,55,6.50
2018,11,11,21,56,6.50
2018,11,11,21,57,6.50
2018,11,11,21,58,6.50
2018,11,11,21,59,6.50
2018,11,11,22,00,6.50
2018,11,11,22,01,6.50
2018,11,11,22,02,6.50
2018,11,11,22,03,6.50
2018,11,11,22,04,6.50
2018,11,11,22,05,6.50
2018,11,11,22,06,6.50
2018,11,11,22,07,6.50
2018,11,11,22,08,6.50
2018,11,11,22,09,6.50
2018,11,11,22,10,6.50
2018,11,11,22,11,6.50
2018,11,11,22,12,6.50
2018,11,11,22,13,6.50
2018,11,11,22,14,6.50
2018,11,11,22,15,6.50
2018,11,11,22,16,6.40
2018,11,11,22,17,6.40
2018,11,11,22,18,6.40
2018,11,11,22,19,6.40
2018,11,11,22,20,6.40
2018,11,11,22,21,6.40
2018,11,11,22,22,6.40
2018,11,11,22,23,6.40
2018,11,11,22,24,6.30
2018,11,11,22,25,6.30
2018,11,11,22,26,6.30
2018,11,11,22,27,6.30
2018,11,11,22,28,6.30
2018,11,11,22,29,6.30
2018,11,11,22,30,6.30
2018,11,11,22,31,6.30
2018,11,11,22,32,6.30
2018,11,11,22,33,6.30
2018,11,11,22,34,6.30
2018,11,11,22,35,6.30
2018,11,11,22,36,6.30
2018,11,11,22,37,6.30
2018,11,11,22,38,6.30
2018,11,11,22,39,6.30
2018,11,11,22,40,6.30
2018,11,11,22,41,6.30
2018,11,11,22,42,6.30
2018,11,11,22,43,6.30
2018,11,11,22,44,6.30
2018,11,11,22,45,6.30
2018,11,11,22,46,6.30
2018,11,11,22,47,6.30
2018,11,11,22,48,6.30
2018,11,11,22,49,6.30
2018,11,11,22,50,6.30
2018,11,11,22,51,6.30
2018,11,11,22,52,6.30
2018,11,11,22,53,6.30